Location: Prairie Dale
(45.6972°N, 104.5033°W)
Time: 09:21:08
(UTC+00:00)

STARS - Pass Details

Date: 28 June 2022
Orbit: 620 x 637 km, 98.2° (Epoch: 14 August)

Event Time Altitude Azimuth Distance (km) Brightness Sun altitude
Rises 06:58:32 0° 359° (N) 2,939 ? -21.0°
Reaches altitude 10° 07:01:17 10° 341° (NNW) 2,022 ? -21.0°
Maximum altitude 07:04:18 18° 298° (WNW) 1,533 ? -21.0°
Enters shadow 07:07:04 11° 257° (WSW) 1,942 ? -21.0°
